This demonstration page uses our WeatherBlox Daily Observations layout. Learn more.

Left ArrowRight Arrow

39.29038, -76.61219

Hourly Observations for November 14, 2016

Temp ( °F °C ) Dew Point ( °F °C ) Humidity (%) Winds ( mph kmh ) Pressure ( in mb ) Visibility ( mi km ) Precip ( " mm )
12:54 am 00:54 undefined 44 6.7 29 -1.7 55 55 undefined N/A 30.13 1020 N/A 0.00 0.00
1:54 am 01:54 undefined 45 7.2 28 -2.2 52 52 undefined N/A 30.11 1020 N/A 0.00 0.00
2:54 am 02:54 undefined 43 6.1 29 -1.7 58 58 undefined N/A 30.11 1020 N/A 0.00 0.00
3:54 am 03:54 undefined 42 5.6 27 -2.8 55 55 undefined N/A 30.09 1019 N/A 0.00 0.00
4:54 am 04:54 undefined 42 5.6 27 -2.8 55 55 undefined N/A 30.09 1019 N/A 0.00 0.00
5:54 am 05:54 undefined 40 4.4 28 -2.2 63 63 undefined N/A 30.09 1019 N/A 0.00 0.00
6:54 am 06:54 undefined 40 4.4 27 -2.8 60 60 undefined N/A 30.09 1019 N/A 0.00 0.00
7:54 am 07:54 undefined 43 6.1 28 -2.2 56 56 undefined N/A 30.10 1019 N/A 0.00 0.00
8:54 am 08:54 undefined 46 7.8 30 -1.1 54 54 undefined N/A 30.09 1019 N/A 0.00 0.00
9:54 am 09:54 undefined 53 11.7 32 0 45 45 undefined N/A 30.09 1019 N/A 0.00 0.00
10:54 am 10:54 undefined 57 13.9 30 -1.1 36 36 undefined N/A 30.08 1019 N/A 0.00 0.00
11:54 am 11:54 undefined 57 13.9 31 -0.6 37 37 undefined N/A 30.06 1018 N/A 0.00 0.00
12:54 pm 12:54 undefined 56 13.3 37 2.8 49 49 undefined N/A 30.05 1018 N/A 0.00 0.00
1:54 pm 13:54 undefined 59 15 22 -5.6 24 24 undefined N/A 30.03 1017 N/A 0.00 0.00
2:54 pm 14:54 undefined 59 15 23 -5 25 25 undefined N/A 30.02 1017 N/A 0.00 0.00
3:54 pm 15:54 undefined 58 14.4 24 -4.4 27 27 undefined N/A 30.01 1016 N/A 0.00 0.00
4:54 pm 16:54 undefined 55 12.8 38 3.3 53 53 undefined N/A 30.00 1016 N/A 0.00 0.00
5:54 pm 17:54 undefined 54 12.2 41 5 62 62 undefined N/A 30.01 1016 N/A 0.00 0.00
6:54 pm 18:54 undefined 53 11.7 35 1.7 51 51 undefined N/A 30.02 1017 N/A 0.00 0.00
7:54 pm 19:54 undefined 53 11.7 40 4.4 61 61 undefined N/A 30.01 1016 N/A 0.00 0.00
8:54 pm 20:54 undefined 52 11.1 42 5.6 69 69 undefined N/A 30.00 1016 N/A 0.00 0.00
9:54 pm 21:54 undefined 53 11.7 39 3.9 59 59 undefined N/A 29.98 1015 N/A 0.00 0.00
10:54 pm 22:54 undefined 53 11.7 40 4.4 61 61 undefined N/A 29.98 1015 N/A 0.00 0.00
11:54 pm 23:54 undefined 51 10.6 42 5.6 71 71 undefined N/A 29.96 1015 N/A 0.00 0.00

Powered by AerisWeather